Tracking 19827 objects as of 21-Aug-2019
HD Live streaming from Space Station
objects crossing your sky now

FENGYUN 1C DEB

Track FENGYUN 1C DEB now!
10-day predictions


NORAD ID: 31829
Int'l Code: 1999-025CHT
Perigee: 822.5 km
Apogee: 1,074.8 km
Inclination: 99.0 °
Period: 103.9 minutes
Semi major axis: 7319 km
RCS: 0.0129 m2 (small)
Launch date: May 10, 1999
Source: People's Republic of China (PRC)
Launch site: Taiyaun Space Center, China (TSC)

Note: This is SATELLITE DEBRIS
aabbcc
Your satellite tracking list
Your tracking list is empty




NASA's NSSDC Master Catalog

Two Line Element Set (TLE):
1 31829U 99025CHT 19232.90371591 +.00000008 +00000-0 +39839-4 0  9994
2 31829 099.0152 121.6594 0172346 303.4346 113.0010 13.86334345621819
Source of the keplerian elements: AFSPC